TimeEDT,TemperatureF,Dew PointF,Humidity,Sea Level PressureIn,VisibilityMPH,Wind Direction,Wind SpeedMPH,Gust SpeedMPH,PrecipitationIn,Events,Conditions,WindDirDegrees,DateUTC
12:53 AM,77.0,75.0,94,30.15,10.0,Calm,Calm,-,0.00,,Mostly Cloudy,0,2013-08-19 04:53:00
1:53 AM,77.0,73.9,90,30.14,9.0,Calm,Calm,-,N/A,,Mostly Cloudy,0,2013-08-19 05:53:00
2:53 AM,75.0,73.0,94,30.13,8.0,Calm,Calm,-,N/A,,Clear,0,2013-08-19 06:53:00
3:53 AM,75.9,73.9,94,30.12,10.0,North,3.5,-,N/A,,Overcast,10,2013-08-19 07:53:00
4:29 AM,75.2,73.4,94,30.13,10.0,North,5.8,-,N/A,,Overcast,10,2013-08-19 08:29:00
4:53 AM,75.0,71.1,87,30.12,10.0,North,8.1,-,N/A,,Overcast,10,2013-08-19 08:53:00
5:41 AM,75.2,71.6,89,30.11,10.0,North,4.6,-,N/A,,Overcast,10,2013-08-19 09:41:00
5:53 AM,75.0,72.0,90,30.10,10.0,North,8.1,-,N/A,,Overcast,10,2013-08-19 09:53:00
6:53 AM,73.9,72.0,93,30.10,10.0,NNE,5.8,-,0.00,,Overcast,30,2013-08-19 10:53:00
7:29 AM,73.4,71.6,94,30.11,4.0,NNE,8.1,-,0.00,,Overcast,30,2013-08-19 11:29:00
7:39 AM,73.4,71.6,94,30.10,4.0,NNE,9.2,-,0.00,,Overcast,20,2013-08-19 11:39:00
7:53 AM,73.9,72.0,93,30.10,1.5,ENE,5.8,-,0.00,Rain,Heavy Rain,70,2013-08-19 11:53:00
8:04 AM,73.4,71.6,94,30.12,0.8,NNW,5.8,-,N/A,Rain,Heavy Rain,330,2013-08-19 12:04:00
8:12 AM,73.4,71.6,94,30.12,1.2,North,5.8,-,N/A,Rain,Heavy Rain,360,2013-08-19 12:12:00
8:26 AM,73.4,71.6,94,30.12,1.0,North,11.5,-,N/A,Rain,Heavy Rain,350,2013-08-19 12:26:00
8:36 AM,73.4,71.6,94,30.11,1.0,North,16.1,-,N/A,Rain,Heavy Rain,350,2013-08-19 12:36:00
8:41 AM,73.4,71.6,94,30.12,0.8,North,11.5,-,N/A,Rain,Heavy Rain,350,2013-08-19 12:41:00
8:53 AM,72.0,70.0,93,30.14,0.2,NNW,9.2,-,N/A,Fog-Rain,Heavy Rain,340,2013-08-19 12:53:00
9:03 AM,71.6,69.8,94,30.14,0.5,North,6.9,-,N/A,Fog-Rain,Heavy Rain,10,2013-08-19 13:03:00
9:18 AM,71.6,69.8,94,30.15,2.0,North,5.8,-,N/A,Rain,Rain,10,2013-08-19 13:18:00
9:20 AM,71.6,69.8,94,30.15,1.0,NNE,5.8,-,N/A,Rain,Heavy Rain,20,2013-08-19 13:20:00
9:42 AM,71.6,69.8,94,30.15,1.5,NNE,6.9,-,N/A,Rain,Light Rain,30,2013-08-19 13:42:00
9:51 AM,71.6,71.6,100,30.15,1.5,NE,10.4,-,N/A,Rain,Light Rain,40,2013-08-19 13:51:00
9:53 AM,72.0,71.1,97,30.14,1.5,NE,8.1,-,N/A,Rain,Light Rain,50,2013-08-19 13:53:00
9:55 AM,71.6,71.6,100,30.15,5.0,NE,9.2,-,N/A,Rain,Light Rain,40,2013-08-19 13:55:00
10:53 AM,73.0,71.1,93,30.15,3.0,NE,9.2,-,N/A,Rain,Light Rain,40,2013-08-19 14:53:00
11:00 AM,73.4,71.6,94,30.16,2.5,NE,10.4,-,N/A,Rain,Rain,50,2013-08-19 15:00:00
11:11 AM,73.4,71.6,94,30.16,5.0,NE,9.2,-,N/A,Rain,Light Rain,50,2013-08-19 15:11:00
11:53 AM,73.9,71.1,91,30.15,10.0,ENE,13.8,24.2,N/A,,Overcast,60,2013-08-19 15:53:00
12:53 PM,77.0,73.0,88,30.13,10.0,ENE,8.1,-,N/A,,Overcast,60,2013-08-19 16:53:00
1:20 PM,77.0,71.6,83,30.13,10.0,ENE,8.1,-,N/A,,Overcast,60,2013-08-19 17:20:00
1:31 PM,77.0,71.6,83,30.13,10.0,ENE,8.1,-,N/A,,Overcast,70,2013-08-19 17:31:00
1:53 PM,79.0,72.0,79,30.13,10.0,East,8.1,-,N/A,,Overcast,80,2013-08-19 17:53:00
2:53 PM,81.0,73.0,77,30.10,10.0,East,8.1,-,N/A,,Overcast,100,2013-08-19 18:53:00
3:53 PM,79.0,72.0,79,30.10,10.0,North,4.6,-,N/A,,Overcast,350,2013-08-19 19:53:00
4:24 PM,75.2,71.6,89,30.10,10.0,North,11.5,-,0.00,,Overcast,360,2013-08-19 20:24:00
4:34 PM,75.2,71.6,89,30.10,10.0,North,12.7,-,0.00,,Overcast,10,2013-08-19 20:34:00
4:50 PM,75.2,71.6,89,30.09,10.0,North,10.4,-,0.00,,Overcast,10,2013-08-19 20:50:00
4:53 PM,75.0,71.1,87,30.09,10.0,North,10.4,-,0.00,,Overcast,10,2013-08-19 20:53:00
5:40 PM,75.2,71.6,89,30.08,10.0,NNE,10.4,-,0.00,,Scattered Clouds,30,2013-08-19 21:40:00
5:53 PM,75.0,71.1,87,30.08,10.0,NNE,11.5,-,0.00,,Scattered Clouds,30,2013-08-19 21:53:00
6:00 PM,75.2,71.6,89,30.08,10.0,NNE,8.1,-,N/A,,Mostly Cloudy,30,2013-08-19 22:00:00
6:53 PM,75.0,72.0,90,30.08,10.0,NE,4.6,-,N/A,,Overcast,40,2013-08-19 22:53:00
7:53 PM,73.9,71.1,91,30.09,10.0,NNE,5.8,-,0.00,,Overcast,30,2013-08-19 23:53:00
8:53 PM,73.9,72.0,93,30.10,10.0,North,3.5,-,N/A,,Overcast,10,2013-08-20 00:53:00
9:03 PM,73.4,71.6,94,30.10,10.0,NE,4.6,-,N/A,,Overcast,40,2013-08-20 01:03:00
9:53 PM,73.9,71.1,91,30.10,10.0,NE,4.6,-,N/A,,Mostly Cloudy,40,2013-08-20 01:53:00
10:38 PM,73.4,71.6,94,30.11,10.0,North,3.5,-,N/A,,Overcast,10,2013-08-20 02:38:00
10:53 PM,73.9,71.1,91,30.11,10.0,NE,3.5,-,N/A,,Overcast,40,2013-08-20 02:53:00
11:53 PM,73.0,71.1,93,30.11,10.0,NE,3.5,-,N/A,,Overcast,40,2013-08-20 03:53:00